EHI
4 4 5 4 3 1 1 0 0 0 0 0 0 0 1 2 1 0 0 0 0 0 1 1 1 0 0 0 0 0 0 0 0 0 0 0 0 0 0 0 0 0 0
4 3 3 3 2 2 2 1 0 0 0 0 0 1 2 2 2 0 0 0 0 0 0 0 0 0 0 0 0 0 0 0 0 0 0 0 0 0 0 0 0 0 0
4 2 1 1 3 4 3 1 0 1 1 1 0 1 1 1 1 0 0 0 0 0 0 0 0 0 0 1 0 0 0 0 0 0 0 0 0 0 0 0 0 0 0
5 3 2 3 4 4 2 1 1 2 2 1 0 0 0 0 0 0 0 0 0 0 0 0 0 0 0 0 0 0 0 0 0 0 0 0 0 0 0 0 0 0 0
6 4 4 5 5 4 3 2 3 3 3 2 1 0 0 0 0 0 0 0 0 0 0 0 0 0 0 0 0 0 0 0 0 0 0 0 0 0 0 0 0 0 0
5 4 3 3 3 3 3 3 3 3 3 2 1 0 1 1 1 0 0 0 0 0 0 0 0 0 0 0 0 0 0 0 0 0 0 0 0 0 0 0 0 0 0
3 1 1 1 1 2 3 3 3 3 3 2 1 0 1 2 1 0 0 0 0 1 0 0 0 0 0 0 0 0 0 0 0 0 0 0 0 1 1 0 0 0 0
2 1 0 0 0 1 3 3 3 3 2 1 0 0 1 1 1 0 0 0 0 0 0 0 0 0 0 0 0 0 0 0 0 0 0 0 0 1 1 0 0 0 0
1 0 0 0 0 1 2 3 3 3 1 0 0 0 0 0 0 0 0 0 0 0 0 0 0 0 0 0 0 0 0 0 0 0 0 0 0 0 0 0 0 0 0
0 0 0 0 0 0 1 2 3 2 1 0 0 0 0 0 0 0 0 0 0 0 0 0 0 0 0 0 0 0 0 1 1 0 0 0 0 0 0 0 0 0 0
0 0 0 0 0 0 0 1 2 1 0 0 0 0 0 0 0 0 0 0 0 0 0 0 0 0 0 0 0 0 0 1 2 1 1 2 1 0 0 0 0 0 0
0 0 0 0 0 0 0 0 0 0 0 0 0 0 0 0 0 0 0 0 0 0 0 0 0 0 0 0 0 0 0 0 1 1 2 3 2 1 0 0 0 0 0
0 0 0 0 0 0 0 0 0 0 0 0 0 0 0 0 0 0 0 0 0 0 0 0 0 0 0 0 0 0 0 0 0 1 2 2 1 0 0 0 0 0 0
0 0 0 0 0 0 0 0 0 0 0 0 0 0 0 0 0 0 0 0 0 0 0 0 0 0 0 0 0 0 0 0 0 1 1 0 0 0 0 0 0 0 0
0 0 0 0 0 0 0 0 0 0 0 0 0 0 0 0 0 0 0 0 0 0 0 0 0 0 0 0 0 0 0 0 0 0 0 0 0 0 0 0 0 0 0
0 0 0 0 0 0 0 0 0 0 0 0 0 0 0 0 0 0 0 0 0 0 0 0 0 0 0 0 0 0 0 0 0 0 0 0 0 1 2 1 1 1 1
0 0 0 0 0 0 0 0 0 0 0 0 0 0 0 0 0 0 0 0 0 0 0 0 0 0 0 0 0 0 0 0 0 0 0 0 0 2 3 2 1 0 0
0 0 0 1 1 1 0 0 0 0 0 0 0 0 0 0 0 0 0 0 0 0 0 0 0 0 0 0 0 0 0 0 0 0 0 0 0 1 2 2 1 0 0
0 0 1 2 2 1 0 0 0 0 0 0 0 0 0 0 0 0 0 0 0 0 0 0 0 0 0 0 0 0 0 0 0 0 0 0 0 0 1 1 0 0 0
0 0 1 2 3 2 0 0 0 0 0 0 0 0 0 0 0 0 0 0 0 0 0 0 0 0 0 0 0 0 0 1 1 0 0 0 0 0 0 0 0 0 0
0 0 0 1 2 1 0 0 0 0 0 0 0 0 0 0 0 0 0 0 0 0 0 0 0 0 0 0 0 0 0 1 1 0 0 0 0 0 0 0 0 0 0
0 0 0 1 1 1 0 0 0 0 0 0 0 0 0 0 0 0 0 0 0 0 0 0 0 0 0 0 0 0 0 1 1 0 0 0 0 0 0 0 0 0 0
0 0 0 0 0 0 0 0 0 0 0 0 0 0 0 0 0 0 0 0 0 0 0 0 0 0 0 0 0 0 0 0 0 0 0 0 0 0 0 0 0 0 0
0 0 0 0 0 0 0 0 0 0 0 0 0 0 0 0 0 0 0 0 0 0 0 0 0 0 0 0 0 0 0 0 0 0 0 0 0 0 0 0 0 0 0
0 0 0 0 0 0 0 0 0 0 0 0 0 0 0 0 0 0 0 0 0 0 0 0 0 0 0 0 0 0 0 0 0 0 0 0 0 0 0 0 0 0 0
0 0 0 0 0 0 0 0 0 0 0 0 0 0 0 0 0 0 0 0 0 0 0 0 0 0 0 0 0 0 0 0 0 0 0 0 0 0 0 0 0 0 0
Wind_Speed
9 11 11 11 11 11 10 10 10 10 10 10 9 8 8 7 7 7 7 6 6 6 6 6 6 6 7 7 7 7 7 7 6 5 5 5 4 5 6 7 8 6 9
13 12 12 12 11 11 11 10 10 10 10 10 9 9 8 8 7 7 6 6 5 4 4 5 5 6 6 7 6 6 7 6 6 5 4 3 3 5 6 8 9 6 9
14 13 12 12 12 11 11 11 10 10 10 10 9 9 8 8 7 6 6 6 5 4 4 4 5 5 6 6 6 6 6 6 7 7 7 2 2 5 6 7 7 8 8
13 11 12 12 12 11 11 11 11 10 10 9 9 8 8 7 7 6 6 5 5 5 4 5 5 5 5 5 5 6 6 6 8 9 5 1 2 6 6 6 6 7 7
13 12 12 12 12 11 11 11 10 9 9 8 8 7 7 7 7 6 6 5 5 4 4 4 5 5 5 5 5 5 5 7 9 9 4 2 4 5 6 6 5 6 6
13 13 11 12 12 11 10 10 9 9 8 8 7 7 6 6 6 6 6 5 5 5 4 4 4 4 4 5 5 5 5 7 8 5 3 2 4 5 5 5 5 5 6
13 12 11 12 12 11 10 9 9 8 8 7 7 6 6 5 5 5 5 5 5 5 4 4 4 4 5 5 5 5 5 7 6 5 3 2 5 5 4 4 4 4 5
12 12 11 12 12 11 10 9 8 7 7 6 6 5 4 3 3 3 3 4 5 5 5 5 5 4 4 4 5 5 5 6 6 5 3 2 6 6 4 3 3 3 4
9 10 10 10 10 10 10 9 7 6 5 4 2 1 1 2 3 2 1 2 4 4 5 5 5 5 5 5 6 6 7 7 5 4 5 2 7 6 4 3 2 2 3
6 6 7 8 9 9 7 9 7 5 4 2 2 3 4 6 6 5 3 1 2 3 4 5 5 6 7 7 7 8 8 6 5 5 1 3 6 5 3 2 2 2 3
6 5 6 6 5 6 6 8 7 6 5 4 4 6 6 3 2 4 3 3 2 4 5 6 7 8 9 8 10 10 7 4 4 2 1 5 5 4 2 2 2 2 3
6 5 5 5 5 4 4 5 3 3 3 3 1 1 2 1 1 2 3 4 5 7 7 8 10 10 8 4 6 8 4 5 3 1 3 6 5 3 2 2 3 3 4
6 5 5 4 5 4 3 3 1 1 1 1 1 1 1 2 2 1 0 2 3 5 3 3 6 5 3 2 1 3 4 2 1 1 4 6 4 3 2 2 3 4 4
5 4 4 3 4 5 4 1 1 1 1 1 2 3 2 2 2 2 1 2 2 1 2 2 3 3 3 2 2 2 2 1 0 1 4 6 4 3 3 3 4 5 5
6 4 3 3 4 5 3 0 2 2 1 1 1 2 2 2 2 2 2 1 2 2 2 3 4 3 3 3 2 3 2 1 0 1 3 5 5 3 4 4 4 5 6
6 6 4 3 4 3 2 1 2 1 1 2 2 3 2 1 2 2 3 2 2 2 2 2 4 3 3 2 2 3 2 1 0 0 2 4 5 4 4 4 5 6 7
6 6 5 4 3 3 3 2 2 1 2 2 2 3 4 2 2 2 3 3 3 3 4 3 4 3 3 3 2 3 2 1 0 1 1 2 3 4 4 5 5 6 7
6 6 5 4 4 4 3 2 2 3 3 2 2 3 5 4 4 3 2 3 3 3 3 3 2 3 3 3 2 2 2 0 1 2 2 2 2 3 4 5 5 6 7
6 6 6 4 4 4 3 2 2 2 1 1 2 3 4 5 5 3 2 2 4 3 3 4 3 3 3 4 3 2 1 1 0 2 1 2 3 3 3 5 6 6 6
5 6 6 5 3 4 2 1 2 1 1 2 2 2 2 3 4 3 2 3 3 2 3 3 4 3 3 3 4 3 2 1 1 0 1 1 1 2 3 4 4 4 6
4 5 5 5 5 4 2 1 1 1 1 1 1 2 2 2 2 2 2 2 2 2 3 4 3 4 3 3 2 3 3 1 0 1 0 1 1 1 2 3 3 3 3
4 3 5 4 5 5 2 1 1 1 0 1 0 1 1 2 2 3 3 3 2 1 2 3 2 2 3 3 1 2 2 2 3 0 0 0 0 1 1 2 2 3 3
3 3 3 3 5 5 4 1 1 1 1 0 1 1 1 0 1 2 3 3 2 2 1 2 2 2 2 3 2 1 1 1 2 2 1 0 1 1 1 0 1 2 3
3 2 2 3 3 4 4 2 1 1 0 0 0 1 1 1 0 0 2 3 2 2 2 2 2 2 2 2 3 1 1 0 0 1 2 1 1 1 1 0 2 2 3
4 4 3 3 4 3 3 3 0 1 1 1 1 0 1 1 1 1 2 2 2 1 2 2 2 2 1 1 2 2 2 1 1 1 1 1 1 0 1 1 1 1 2
5 4 4 4 4 3 2 2 1 0 1 2 2 1 1 1 1 1 1 1 1 1 2 2 2 1 1 2 2 2 1 1 1 1 1 1 0 1 1 1 0 1 1
Wind_Direction
105 105 108 104 100 98 94 90 87 84 79 76 74 71 66 62 61 59 56 54 50 45 39 33 26 24 20 21 21 20 22 24 21 17 18 23 31 40 38 30 30 43 41
111 106 103 101 99 97 94 91 87 83 79 75 72 69 65 61 57 51 49 46 44 40 32 25 17 14 14 14 16 15 13 7 358 348 341 353 42 57 48 39 38 40 38
109 110 102 98 97 95 92 90 87 83 79 76 72 67 62 56 51 46 41 38 35 31 23 16 9 7 8 7 8 8 5 355 342 328 313 295 106 76 58 44 41 39 37
104 103 100 99 96 94 93 90 86 82 78 75 70 66 59 53 45 39 33 27 25 21 18 13 5 0 2 1 1 359 353 342 331 321 311 342 77 78 62 47 39 37 39
102 100 101 101 98 95 92 89 85 81 76 73 68 63 57 50 42 35 30 23 18 11 6 3 359 352 352 354 354 351 343 334 328 315 313 53 81 81 64 49 38 37 44
106 106 108 106 102 97 92 89 86 79 75 72 66 60 55 48 42 35 27 19 13 5 357 355 351 345 343 345 343 339 333 326 321 308 326 57 94 85 70 53 45 40 43
114 115 118 115 111 103 95 90 84 78 73 70 64 56 49 43 37 29 22 18 12 5 359 351 343 337 336 335 335 327 323 319 300 297 297 89 106 98 80 62 51 42 43
118 122 124 125 122 115 106 98 88 80 72 67 62 53 40 25 18 19 25 18 11 3 354 345 335 324 321 320 319 310 305 303 301 313 308 117 123 108 87 72 56 52 53
114 127 136 144 136 128 121 113 105 96 87 77 69 32 319 299 286 282 15 19 1 353 343 335 329 316 304 298 297 291 289 291 296 285 288 113 127 114 99 84 68 66 69
118 121 129 137 140 144 139 134 136 142 147 164 220 249 268 269 255 245 223 173 323 318 312 308 302 296 289 281 277 272 273 281 264 263 268 114 118 117 112 106 101 103 92
119 125 123 121 125 139 148 143 163 176 188 208 222 242 261 267 243 217 144 155 242 276 278 278 279 278 277 269 259 257 263 252 248 244 110 116 114 115 121 137 138 137 123
136 133 128 130 135 137 113 132 166 163 171 203 156 241 266 299 324 0 139 202 242 258 266 263 268 272 266 253 237 239 247 244 245 215 127 128 118 120 141 156 158 158 148
138 130 126 138 133 120 113 114 113 115 146 112 19 349 345 355 347 22 151 202 246 259 272 266 257 256 248 248 222 224 239 248 224 125 127 125 119 136 164 167 168 169 162
116 120 121 120 119 105 89 93 132 79 52 37 20 9 18 9 336 11 341 14 334 343 354 327 297 304 323 315 290 274 266 249 227 122 143 134 137 157 181 186 179 176 170
127 121 102 101 91 94 101 280 83 81 35 49 39 352 23 20 352 360 339 17 344 350 354 340 316 338 330 311 304 309 325 315 344 145 134 151 162 171 185 191 185 179 174
135 130 123 102 93 100 119 103 88 92 130 53 37 350 19 38 5 0 354 10 354 338 342 329 318 327 308 306 301 305 303 307 314 122 154 165 176 177 190 194 187 176 172
132 128 125 122 104 81 60 35 73 67 59 51 54 1 1 21 21 28 2 356 350 340 342 337 335 330 317 313 307 299 273 252 267 280 203 166 176 182 191 195 186 177 174
126 124 127 121 118 102 82 33 23 49 41 27 53 27 0 4 15 36 7 351 344 348 345 329 334 332 332 331 324 309 315 259 227 243 213 188 179 175 183 192 186 185 177
125 127 132 125 124 116 117 142 73 57 41 36 60 46 3 2 11 17 359 351 350 360 349 338 358 348 330 325 304 277 288 272 259 296 274 197 180 163 161 180 183 181 178
128 126 133 133 126 119 107 83 88 57 8 50 69 65 18 358 8 4 344 2 357 353 346 337 338 334 319 309 315 325 301 266 195 323 316 288 156 148 154 165 170 183 184
132 134 131 149 143 124 110 93 77 69 11 57 56 62 13 352 4 348 348 335 347 351 346 337 343 336 325 327 340 331 314 314 289 180 314 344 30 86 138 155 169 164 178
143 140 140 147 136 129 138 144 153 114 18 132 118 91 2 1 15 351 345 328 333 352 341 327 348 341 324 340 348 350 339 345 341 7 115 244 73 65 69 123 149 163 165
129 138 128 131 139 139 144 123 70 74 297 25 159 134 221 225 68 336 329 327 341 353 325 333 356 344 333 331 337 57 26 333 321 326 355 69 96 84 86 197 138 126 137
74 88 124 132 135 132 132 126 164 193 218 227 187 180 227 139 152 332 316 318 335 342 343 333 356 342 347 323 326 336 272 165 145 323 327 358 118 120 105 34 72 74 105
61 48 41 80 85 102 113 132 228 314 316 351 358 28 297 181 209 131 287 308 328 335 334 330 342 346 341 324 319 328 335 341 269 202 283 312 8 116 131 75 75 90 107
65 54 46 62 64 84 114 151 183 246 305 325 319 309 292 246 202 172 289 299 320 326 326 319 311 317 307 316 325 328 325 322 317 333 276 269 218 241 164 120 125 131 123